Tracking 29892 objects as of 21-Nov-2024
HD Live streaming from Space Station
objects crossing your sky now

FENGYUN 1C DEB

Track FENGYUN 1C DEB now!
10-day predictions


NORAD ID: 38516
Int'l Code: 1999-025ETB
Perigee: 708.1 km
Apogee: 866.4 km
Inclination: 98.4 °
Period: 100.5 minutes
Semi major axis: 7158 km
RCS: 0.0041 m2 (small)
Launch date: May 10, 1999
Source: People's Republic of China (PRC)
Launch site: Taiyaun Space Center, China (TSC)

Note: This is SATELLITE DEBRIS
Your satellite tracking list
Your tracking list is empty




NASA's NSSDC Master Catalog

Two Line Element Set (TLE):
1 38516U 99025ETB 24314.69758756  .00001460  00000-0  50840-3 0  9996
2 38516  98.4085 302.8977 0110546 228.1404 131.0306 14.33490190791693
Source of the keplerian elements: AFSPC